CW0352 Weather Reports


Display with metric or nautical units.
time (UTC)temp
F
wind
direction
speed
MPH
gust
MPH
rain 1hr
in
rain 24hr
in
rain mn
in
humidity
%
barometer
mb
20240617103112 72 137 5.0 14.0 0.00 0.04 0.04 81 1006.9
20240617102812 72 191 5.0 14.0 0.00 0.04 0.04 81 1007.0
20240617102648 72 191 5.0 14.0 0.00 0.04 0.04 81 1007.0
20240617102244 73 159 5.0 15.0 0.00 0.04 0.04 81 1007.0
20240617102122 73 159 5.0 15.0 0.00 0.04 0.04 81 1007.0
20240617102008 73 130 5.0 15.0 0.00 0.04 0.04 81 1007.0
20240617101522 73 130 5.0 15.0 0.00 0.04 0.04 81 1007.0
20240617101005 73 205 5.0 9.0 0.00 0.04 0.04 80 1007.0
20240617100735 73 191 5.0 11.0 0.00 0.04 0.04 80 1007.2
20240617100506 73 191 5.0 11.0 0.00 0.04 0.04 80 1007.2
20240617095935 73 179 4.0 11.0 0.00 0.04 0.04 80 1007.1
20240617095435 73 171 4.0 11.0 0.00 0.04 0.04 79 1007.1
20240617094933 73 126 4.0 10.0 0.00 0.04 0.04 79 1007.2
20240617094657 73 142 5.0 15.0 0.00 0.04 0.04 79 1007.2
20240617094535 73 142 5.0 15.0 0.00 0.04 0.04 79 1007.2
20240617094144 74 83 5.0 15.0 0.00 0.04 0.04 78 1007.4
20240617094025 74 83 5.0 15.0 0.00 0.04 0.04 78 1007.4
20240617093418 74 153 5.0 15.0 0.00 0.04 0.04 78 1007.4
20240617093119 74 123 6.0 15.0 0.00 0.04 0.04 77 1007.2
20240617092855 74 123 6.0 15.0 0.00 0.04 0.04 77 1007.2
20240617092325 74 137 6.0 19.0 0.00 0.04 0.04 77 1007.2
20240617091824 74 163 6.0 17.0 0.00 0.04 0.04 78 1007.2
20240617091308 73 190 5.0 20.0 0.00 0.04 0.04 78 1007.4
20240617091102 73 163 6.0 20.0 0.00 0.04 0.04 79 1007.5
20240617090454 73 138 6.0 20.0 0.00 0.04 0.04 79 1007.5
20240617090228 73 138 6.0 20.0 0.00 0.04 0.04 79 1007.5
20240617085659 73 130 5.0 15.0 0.00 0.04 0.04 78 1007.5
20240617085131 73 207 5.0 15.0 0.01 0.04 0.04 78 1007.5
20240617084627 73 192 5.0 15.0 0.04 0.04 0.04 78 1007.6
20240617084124 73 161 5.0 13.0 0.04 0.04 0.04 78 1007.6
20240617083852 72 183 5.0 14.0 0.04 0.04 0.04 78 1007.6
20240617083623 72 183 5.0 14.0 0.04 0.04 0.04 78 1007.6
20240617083054 72 244 5.0 13.0 0.04 0.04 0.04 77 1007.7
20240617082556 73 175 4.0 11.0 0.04 0.04 0.04 77 1007.7
20240617082049 73 209 4.0 17.0 0.04 0.04 0.04 77 1007.9
20240617081526 73 207 4.0 17.0 0.04 0.04 0.04 77 1008.0
20240617081022 73 197 4.0 16.0 0.04 0.04 0.04 79 1008.0
20240617080747 73 219 6.0 24.0 0.04 0.04 0.04 79 1008.1
20240617080623 73 219 6.0 24.0 0.04 0.04 0.04 79 1008.1
20240617080014 73 187 8.0 24.0 0.04 0.04 0.04 78 1007.8
20240617075447 74 207 6.0 17.0 0.04 0.04 0.04 76 1007.8
20240617074943 76 126 8.0 22.0 0.00 0.00 0.00 71 1007.7
20240617074646 77 188 10.0 28.0 0.00 0.00 0.00 67 1007.8
20240617074522 77 188 10.0 28.0 0.00 0.00 0.00 67 1007.8
20240617073914 78 190 8.0 25.0 0.00 0.00 0.00 63 1007.5
20240617073348 78 169 8.0 21.0 0.00 0.00 0.00 61 1007.4
20240617072842 79 111 8.0 21.0 0.00 0.00 0.00 59 1007.5
20240617072602 79 218 8.0 21.0 0.00 0.00 0.00 59 1007.7
20240617072339 79 218 8.0 21.0 0.00 0.00 0.00 59 1007.7
20240617072038 79 0 7.0 23.0 0.00 0.00 0.00 58 1007.5
20240617071917 79 0 7.0 23.0 0.00 0.00 0.00 58 1007.5
20240617071309 79 0 7.0 22.0 0.00 0.00 0.00 58 1007.4
20240617070744 79 0 7.0 19.0 0.00 0.00 0.00 57 1007.2
20240617070239 79 0 6.0 19.0 0.00 0.00 0.00 57 1007.1
20240617065959 79 0 6.0 20.0 0.00 0.00 0.00 57 1007.1
20240617065739 79 0 6.0 20.0 0.00 0.00 0.00 57 1007.1
20240617065233 79 0 6.0 20.0 0.00 0.00 0.00 57 1007.2
20240617064707 79 0 5.0 17.0 0.00 0.00 0.00 57 1007.1
20240617064203 80 0 5.0 17.0 0.00 0.00 0.00 56 1007.1
20240617063637 80 0 5.0 17.0 0.00 0.00 0.00 56 1007.0
20240617063134 80 0 6.0 18.0 0.00 0.00 0.00 56 1006.9
20240617062851 80 0 6.0 18.0 0.00 0.00 0.00 56 1007.0
20240617062735 80 0 6.0 18.0 0.00 0.00 0.00 56 1007.0
20240617062344 80 0 6.0 15.0 0.00 0.00 0.00 56 1007.0
20240617062233 80 0 6.0 15.0 0.00 0.00 0.00 56 1007.0
20240617061625 80 0 5.0 13.0 0.00 0.00 0.00 55 1006.9
20240617061123 80 0 5.0 11.0 0.00 0.00 0.00 55 1006.9
20240617060607 80 0 5.0 14.0 0.00 0.00 0.00 55 1007.0
20240617060331 80 0 5.0 14.0 0.00 0.00 0.00 55 1006.9
20240617060209 80 0 5.0 14.0 0.00 0.00 0.00 55 1006.9
20240617055528 80 0 5.0 17.0 0.00 0.00 0.00 55 1007.0
20240617055000 81 0 6.0 17.0 0.00 0.00 0.00 55 1007.0
20240617054433 81 0 6.0 14.0 0.00 0.00 0.00 55 1007.0
20240617053929 81 0 5.0 14.0 0.00 0.00 0.00 55 1007.1
20240617053631 81 0 5.0 15.0 0.00 0.00 0.00 54 1007.2
20240617053404 81 0 5.0 15.0 0.00 0.00 0.00 54 1007.2
20240617053130 81 0 5.0 15.0 0.00 0.00 0.00 54 1007.4
20240617052900 81 0 5.0 15.0 0.00 0.00 0.00 54 1007.4
20240617052335 81 0 5.0 13.0 0.00 0.00 0.00 54 1007.4
20240617052100 82 0 5.0 20.0 0.00 0.00 0.00 54 1007.4
20240617051831 82 0 5.0 20.0 0.00 0.00 0.00 54 1007.4
20240617051332 82 0 5.0 20.0 0.00 0.00 0.00 54 1007.5
20240617050811 82 0 5.0 14.0 0.00 0.00 0.00 53 1007.4
20240617050306 82 0 5.0 13.0 0.00 0.00 0.00 53 1007.2
20240617045747 82 0 5.0 11.0 0.00 0.00 0.00 52 1007.2
20240617045225 83 0 5.0 13.0 0.00 0.00 0.00 51 1007.4
20240617044721 83 0 5.0 13.0 0.00 0.00 0.00 51 1007.2
20240617044214 83 0 5.0 13.0 0.00 0.00 0.00 50 1007.2
20240617044157 83 0 5.0 13.0 0.00 0.00 0.00 50 1007.1
20240617043710 83 0 5.0 13.0 0.00 0.00 0.00 50 1007.1
20240617043147 83 0 5.0 13.0 0.00 0.00 0.00 49 1007.2
20240617042858 83 0 5.0 13.0 0.00 0.00 0.00 49 1007.2
20240617042737 83 0 5.0 13.0 0.00 0.00 0.00 49 1007.2
20240617042348 84 0 5.0 12.0 0.00 0.00 0.00 48 1007.2
20240617042232 84 0 5.0 12.0 0.00 0.00 0.00 48 1007.2
20240617041619 84 0 4.0 11.0 0.00 0.00 0.00 48 1007.4
20240617041338 84 0 5.0 11.0 0.00 0.00 0.00 48 1007.4
20240617041114 84 0 5.0 11.0 0.00 0.00 0.00 48 1007.4
20240617040553 84 0 5.0 11.0 0.00 0.00 0.00 47 1007.2
20240617040104 85 0 4.0 11.0 0.00 0.00 0.00 47 1007.4
20240617035535 85 0 4.0 11.0 0.00 0.00 0.00 46 1007.4
20240617035515 85 0 4.0 11.0 0.00 0.00 0.00 46 1007.2
20240617035033 85 0 4.0 11.0 0.00 0.00 0.00 46 1007.2
20240617034535 85 0 5.0 11.0 0.00 0.00 0.00 46 1007.4
20240617034030 85 0 4.0 10.0 0.00 0.00 0.00 46 1007.4
20240617033738 86 0 4.0 10.0 0.00 0.00 0.00 45 1007.5
20240617033514 86 0 4.0 10.0 0.00 0.00 0.00 45 1007.5
20240617033014 86 0 4.0 9.0 0.00 0.00 0.00 45 1007.5
20240617032512 86 0 4.0 14.0 0.00 0.00 0.00 45 1007.4
20240617031955 86 0 4.0 14.0 0.00 0.00 0.00 45 1007.2
20240617031455 87 0 4.0 11.0 0.00 0.00 0.00 45 1007.2
20240617030955 87 0 4.0 11.0 0.00 0.00 0.00 45 1007.1
20240617030700 87 0 4.0 10.0 0.00 0.00 0.00 44 1007.0
20240617030430 87 0 4.0 10.0 0.00 0.00 0.00 44 1007.0
20240617025913 87 0 4.0 10.0 0.00 0.00 0.00 44 1007.0
20240617025411 87 0 4.0 11.0 0.00 0.00 0.00 44 1007.0
20240617025144 88 0 5.0 11.0 0.00 0.00 0.00 44 1007.0
20240617025017 88 0 5.0 11.0 0.00 0.00 0.00 44 1007.0
20240617024636 88 0 5.0 11.0 0.00 0.00 0.00 44 1006.9
20240617024515 88 0 5.0 11.0 0.00 0.00 0.00 44 1006.9
20240617023911 88 0 5.0 10.0 0.00 0.00 0.00 44 1006.9
20240617023408 89 153 5.0 11.0 0.00 0.00 0.00 43 1006.7
20240617022905 89 146 5.0 11.0 0.00 0.00 0.00 43 1006.8
20240617022403 89 143 5.0 14.0 0.00 0.00 0.00 42 1006.7
20240617021835 90 182 5.0 14.0 0.00 0.00 0.00 42 1006.6
20240617021334 90 109 4.0 11.0 0.00 0.00 0.00 40 1006.6
20240617020836 91 134 4.0 10.0 0.00 0.00 0.00 39 1006.6
20240617020303 91 130 4.0 10.0 0.00 0.00 0.00 38 1006.5
20240617020027 92 185 4.0 10.0 0.00 0.00 0.00 37 1006.3
20240617015905 92 185 4.0 10.0 0.00 0.00 0.00 37 1006.3
20240617015238 92 186 4.0 10.0 0.00 0.00 0.00 36 1006.1
20240617015220 92 184 5.0 10.0 0.00 0.00 0.00 36 1006.0
20240617014835 92 184 5.0 10.0 0.00 0.00 0.00 36 1006.0
20240617014654 93 173 5.0 12.0 0.00 0.00 0.00 35 1005.9
20240617014206 93 173 5.0 12.0 0.00 0.00 0.00 35 1005.9
20240617013637 93 166 4.0 12.0 0.00 0.00 0.00 34 1005.8
20240617013608 94 142 4.0 14.0 0.00 0.00 0.00 34 1005.8
20240617013109 94 142 4.0 14.0 0.00 0.00 0.00 34 1005.8
20240617012618 94 159 4.0 14.0 0.00 0.00 0.00 33 1005.7
20240617012311 94 138 5.0 13.0 0.00 0.00 0.00 33 1005.6
20240617012146 94 138 5.0 13.0 0.00 0.00 0.00 33 1005.6
20240617011806 95 173 5.0 12.0 0.00 0.00 0.00 32 1005.5
20240617011642 95 173 5.0 12.0 0.00 0.00 0.00 32 1005.5
20240617011036 95 48 6.0 16.0 0.00 0.00 0.00 32 1005.5
20240617010507 95 134 5.0 16.0 0.00 0.00 0.00 32 1005.4
20240617005941 96 119 5.0 14.0 0.00 0.00 0.00 32 1005.3
20240617005438 96 161 5.0 13.0 0.00 0.00 0.00 32 1005.3
20240617004931 96 127 5.0 13.0 0.00 0.00 0.00 32 1005.3
20240617004431 96 175 5.0 13.0 0.00 0.00 0.00 32 1005.3
20240617004128 97 176 5.0 11.0 0.00 0.00 0.00 31 1005.4
20240617004008 97 176 5.0 11.0 0.00 0.00 0.00 31 1005.4
20240617003401 97 162 4.0 10.0 0.00 0.00 0.00 32 1005.4
20240617002832 97 160 5.0 16.0 0.00 0.00 0.00 31 1005.4
20240617002329 97 130 5.0 16.0 0.00 0.00 0.00 32 1005.3
20240617001802 97 120 5.0 16.0 0.00 0.00 0.00 31 1005.4
20240617001300 98 91 6.0 16.0 0.00 0.00 0.00 31 1005.4
20240617000747 98 117 5.0 13.0 0.00 0.00 0.00 31 1005.6
20240617000246 98 139 5.0 13.0 0.00 0.00 0.00 32 1005.7
20240616235734 98 163 6.0 15.0 0.00 0.00 0.00 31 1005.6
20240616235446 98 174 6.0 15.0 0.00 0.00 0.00 31 1005.6
20240616235322 98 174 6.0 15.0 0.00 0.00 0.00 31 1005.6
20240616234713 98 113 5.0 15.0 0.00 0.00 0.00 31 1005.7
20240616234211 98 105 5.0 15.0 0.00 0.00 0.00 31 1005.7
20240616233722 98 173 6.0 16.0 0.00 0.00 0.00 31 1005.8
20240616233206 98 174 6.0 16.0 0.00 0.00 0.00 31 1005.9
20240616232637 99 165 6.0 14.0 0.00 0.00 0.00 31 1005.9
20240616232111 99 165 6.0 14.0 0.00 0.00 0.00 31 1006.0
20240616231613 99 157 6.0 15.0 0.00 0.00 0.00 32 1006.1
20240616231104 99 232 6.0 15.0 0.00 0.00 0.00 31 1006.1
20240616230558 100 132 5.0 12.0 0.00 0.00 0.00 31 1006.1
20240616230044 100 97 5.0 12.0 0.00 0.00 0.00 31 1006.3
20240616225506 100 159 5.0 11.0 0.00 0.00 0.00 31 1006.3
20240616225003 100 194 5.0 15.0 0.00 0.00 0.00 30 1006.4
20240616224435 100 186 6.0 15.0 0.00 0.00 0.00 31 1006.4
20240616224159 100 120 6.0 14.0 0.00 0.00 0.00 31 1006.4
20240616223932 100 120 6.0 14.0 0.00 0.00 0.00 31 1006.4
20240616223408 100 113 5.0 14.0 0.00 0.00 0.00 31 1006.5
20240616222903 101 173 4.0 17.0 0.00 0.00 0.00 30 1006.6
20240616222600 101 246 5.0 17.0 0.00 0.00 0.00 31 1006.6
20240616222440 101 246 5.0 17.0 0.00 0.00 0.00 31 1006.6
20240616221832 100 155 5.0 12.0 0.00 0.00 0.00 31 1006.7
20240616221306 101 172 5.0 14.0 0.00 0.00 0.00 30 1006.8
20240616220742 101 173 6.0 14.0 0.00 0.00 0.00 30 1006.7
20240616220441 100 171 6.0 14.0 0.00 0.00 0.00 31 1006.8
20240616220318 100 171 6.0 14.0 0.00 0.00 0.00 31 1006.8
20240616215647 101 125 5.0 13.0 0.00 0.00 0.00 31 1006.8
20240616215142 101 166 5.0 14.0 0.00 0.00 0.00 31 1006.9
20240616214626 101 139 5.0 14.0 0.00 0.00 0.00 30 1006.8
20240616214122 101 182 5.0 14.0 0.00 0.00 0.00 31 1006.9
20240616213554 101 146 5.0 14.0 0.00 0.00 0.00 30 1006.9
20240616213041 102 122 5.0 14.0 0.00 0.00 0.00 30 1006.9
20240616212526 102 146 6.0 14.0 0.00 0.00 0.00 29 1007.0
20240616212227 102 161 6.0 14.0 0.00 0.00 0.00 28 1007.0
20240616212000 102 161 6.0 14.0 0.00 0.00 0.00 28 1007.0
20240616211707 103 191 5.0 14.0 0.00 0.00 0.00 27 1007.2
20240616211433 103 191 5.0 14.0 0.00 0.00 0.00 27 1007.2
20240616211204 103 144 5.0 17.0 0.00 0.00 0.00 28 1007.2
20240616211046 103 144 5.0 17.0 0.00 0.00 0.00 28 1007.2
20240616210413 103 173 4.0 17.0 0.00 0.00 0.00 28 1007.2
20240616205911 103 103 4.0 12.0 0.00 0.00 0.00 24 1007.1
20240616205408 103 225 4.0 12.0 0.00 0.00 0.00 26 1007.4
20240616204906 103 198 4.0 16.0 0.00 0.00 0.00 27 1007.4
20240616204624 103 182 5.0 16.0 0.00 0.00 0.00 28 1007.5
20240616204510 103 182 5.0 16.0 0.00 0.00 0.00 28 1007.5
20240616203918 103 167 5.0 15.0 0.00 0.00 0.00 27 1007.6
20240616203407 103 183 5.0 14.0 0.00 0.00 0.00 28 1007.7
20240616202907 102 185 5.0 14.0 0.00 0.00 0.00 29 1007.7
20240616202649 102 209 5.0 15.0 0.00 0.00 0.00 29 1007.8
20240616202614 102 158 5.0 15.0 0.00 0.00 0.00 28 1008.0
20240616202520 102 209 5.0 15.0 0.00 0.00 0.00 29 1007.8
20240616201640 102 157 5.0 14.0 0.00 0.00 0.00 29 1007.9
20240616201401 102 157 5.0 14.0 0.00 0.00 0.00 29 1007.9
20240616200849 101 233 5.0 13.0 0.00 0.00 0.00 30 1008.1
20240616200555 101 146 6.0 20.0 0.00 0.00 0.00 30 1008.1
20240616200321 101 146 6.0 20.0 0.00 0.00 0.00 30 1008.1
20240616200026 101 144 6.0 20.0 0.00 0.00 0.00 29 1008.1
20240616195756 101 144 6.0 20.0 0.00 0.00 0.00 29 1008.1
20240616195309 101 184 5.0 19.0 0.00 0.00 0.00 28 1008.1
20240616194752 101 201 5.0 19.0 0.00 0.00 0.00 28 1008.3
20240616194509 101 203 6.0 18.0 0.00 0.00 0.00 29 1008.3
20240616194238 101 203 6.0 18.0 0.00 0.00 0.00 29 1008.3
20240616193736 101 173 5.0 15.0 0.00 0.00 0.00 29 1008.3
20240616193222 101 175 4.0 15.0 0.00 0.00 0.00 29 1008.5
20240616192650 101 78 4.0 10.0 0.00 0.00 0.00 30 1008.6
20240616192128 101 92 4.0 10.0 0.00 0.00 0.00 30 1008.6
20240616191611 102 134 3.0 12.0 0.00 0.00 0.00 31 1008.7
20240616191113 101 123 4.0 12.0 0.00 0.00 0.00 30 1008.8
20240616190605 101 205 3.0 10.0 0.00 0.00 0.00 31 1008.8
20240616190317 101 170 4.0 11.0 0.00 0.00 0.00 31 1008.9
20240616190049 101 170 4.0 11.0 0.00 0.00 0.00 31 1008.9
20240616185511 101 137 4.0 11.0 0.00 0.00 0.00 31 1009.0
20240616184943 101 195 4.0 11.0 0.00 0.00 0.00 31 1009.1
20240616184652 101 172 4.0 11.0 0.00 0.00 0.00 32 1009.2
20240616184417 101 172 4.0 11.0 0.00 0.00 0.00 32 1009.2
20240616183855 101 169 4.0 11.0 0.00 0.00 0.00 31 1009.2
20240616183835 102 194 4.0 11.0 0.00 0.00 0.00 32 1009.3
20240616183453 102 194 4.0 11.0 0.00 0.00 0.00 32 1009.3
20240616182847 102 207 3.0 9.0 0.00 0.00 0.00 31 1009.3
20240616182348 101 215 3.0 9.0 0.00 0.00 0.00 31 1009.3
20240616181846 101 186 2.0 6.0 0.00 0.00 0.00 33 1009.4
20240616181335 100 149 2.0 5.0 0.00 0.00 0.00 34 1009.4
20240616181057 100 216 2.0 7.0 0.00 0.00 0.00 34 1009.5
20240616180830 100 216 2.0 7.0 0.00 0.00 0.00 34 1009.5
20240616180303 99 248 3.0 9.0 0.00 0.00 0.00 36 1009.7
20240616175737 98 249 3.0 9.0 0.00 0.00 0.00 37 1009.5
20240616175215 98 112 3.0 9.0 0.00 0.00 0.00 38 1009.7
20240616174642 97 161 2.0 7.0 0.00 0.00 0.00 38 1009.5
20240616174117 96 144 2.0 7.0 0.00 0.00 0.00 41 1009.8
20240616173606 95 154 2.0 8.0 0.00 0.00 0.00 41 1009.8
20240616173441 94 121 3.0 9.0 0.00 0.00 0.00 41 1009.9
20240616172535 94 123 2.0 9.0 0.00 0.00 0.00 41 1010.0
20240616172234 95 200 1.0 3.0 0.00 0.00 0.00 41 1009.9
20240616172006 95 200 1.0 3.0 0.00 0.00 0.00 41 1009.9
20240616171714 94 232 1.0 4.0 0.00 0.00 0.00 43 1010.0
20240616171442 94 232 1.0 4.0 0.00 0.00 0.00 43 1010.0
20240616171138 94 227 1.0 4.0 0.00 0.00 0.00 41 1010.0
20240616170914 94 227 1.0 4.0 0.00 0.00 0.00 41 1010.0
20240616170401 94 227 1.0 6.0 0.00 0.00 0.00 42 1010.0
20240616170113 93 227 2.0 6.0 0.00 0.00 0.00 43 1010.0
20240616165949 93 227 2.0 6.0 0.00 0.00 0.00 43 1010.0
20240616165822 93 232 3.0 6.0 0.00 0.00 0.00 43 1010.0
20240616165440 93 232 3.0 6.0 0.00 0.00 0.00 43 1010.0
20240616164834 93 232 3.0 6.0 0.00 0.00 0.00 43 1009.9
20240616164308 92 106 3.0 7.0 0.00 0.00 0.00 43 1009.9
20240616163805 92 105 3.0 6.0 0.00 0.00 0.00 45 1009.8
20240616163238 92 162 3.0 10.0 0.00 0.00 0.00 45 1009.7
20240616162735 91 192 3.0 10.0 0.00 0.00 0.00 47 1009.5
20240616162211 91 229 4.0 12.0 0.00 0.00 0.00 47 1009.4
20240616161707 90 182 3.0 9.0 0.00 0.00 0.00 47 1009.4
20240616161638 90 125 4.0 9.0 0.00 0.00 0.00 48 1009.5
20240616161243 90 125 4.0 9.0 0.00 0.00 0.00 48 1009.5
20240616160635 89 167 4.0 11.0 0.00 0.00 0.00 47 1009.3
20240616160603 89 203 4.0 13.0 0.00 0.00 0.00 49 1009.4
20240616160214 89 203 4.0 13.0 0.00 0.00 0.00 49 1009.4
20240616155936 88 203 3.0 13.0 0.00 0.00 0.00 48 1009.4
20240616155321 88 209 3.0 12.0 0.00 0.00 0.00 52 1009.4
20240616155205 88 209 3.0 12.0 0.00 0.00 0.00 52 1009.4
20240616154535 87 190 5.0 11.0 0.00 0.00 0.00 51 1009.4
20240616154234 86 232 5.0 14.0 0.00 0.00 0.00 52 1009.4
20240616154111 86 232 5.0 14.0 0.00 0.00 0.00 52 1009.4
20240616153715 86 172 4.0 14.0 0.00 0.00 0.00 53 1009.4
20240616153444 86 172 4.0 14.0 0.00 0.00 0.00 53 1009.4
20240616153433 85 110 4.0 11.0 0.00 0.00 0.00 54 1009.4
20240616152936 85 110 4.0 11.0 0.00 0.00 0.00 54 1009.4
20240616152410 85 198 3.0 9.0 0.00 0.00 0.00 54 1009.4
20240616151906 84 189 4.0 11.0 0.00 0.00 0.00 55 1009.5
20240616151838 83 216 5.0 12.0 0.00 0.00 0.00 57 1009.5
20240616151340 83 216 5.0 12.0 0.00 0.00 0.00 57 1009.5
20240616150837 83 98 5.0 12.0 0.00 0.00 0.00 57 1009.7
20240616150311 83 218 5.0 12.0 0.00 0.00 0.00 58 1009.5
20240616145806 82 184 5.0 13.0 0.00 0.00 0.00 57 1009.7
20240616145240 82 205 5.0 15.0 0.00 0.00 0.00 58 1009.7
20240616145010 81 237 6.0 15.0 0.00 0.00 0.00 59 1009.7
20240616144841 81 237 6.0 15.0 0.00 0.00 0.00 59 1009.7
20240616144211 81 217 5.0 15.0 0.00 0.00 0.00 59 1009.5
20240616143708 80 201 5.0 15.0 0.00 0.00 0.00 60 1009.5
20240616143139 80 210 6.0 18.0 0.00 0.00 0.00 60 1009.7
20240616142637 80 140 6.0 18.0 0.00 0.00 0.00 61 1009.5
20240616142410 80 237 5.0 16.0 0.00 0.00 0.00 61 1009.5
20240616142241 80 237 5.0 16.0 0.00 0.00 0.00 61 1009.5
20240616141855 79 202 5.0 15.0 0.00 0.00 0.00 62 1009.5
20240616141630 79 202 5.0 15.0 0.00 0.00 0.00 62 1009.5
20240616141125 79 198 5.0 17.0 0.00 0.00 0.00 62 1009.5
20240616140601 79 205 4.0 13.0 0.00 0.00 0.00 63 1009.7
20240616140044 78 201 4.0 12.0 0.00 0.00 0.00 64 1009.5
20240616135519 78 209 4.0 11.0 0.00 0.00 0.00 65 1009.5
20240616134939 77 210 3.0 11.0 0.00 0.00 0.00 66 1009.7
20240616134436 76 210 4.0 12.0 0.00 0.00 0.00 68 1009.8
20240616133933 76 202 4.0 12.0 0.00 0.00 0.00 69 1009.8
20240616133430 76 228 4.0 11.0 0.00 0.00 0.00 70 1009.8
20240616132929 75 238 5.0 12.0 0.00 0.00 0.00 70 1009.8
20240616132400 75 197 4.0 11.0 0.00 0.00 0.00 71 1009.9
20240616132112 74 205 3.0 11.0 0.00 0.00 0.00 71 1009.9
20240616131850 74 205 3.0 11.0 0.00 0.00 0.00 71 1009.9
20240616131717 74 198 3.0 10.0 0.00 0.00 0.00 72 1009.8
20240616131215 74 203 3.0 10.0 0.00 0.00 0.00 73 1009.8
20240616130345 73 200 2.0 8.0 0.00 0.00 0.00 74 1009.8
20240616125818 72 200 3.0 7.0 0.00 0.00 0.00 75 1009.9
20240616125523 72 200 2.0 7.0 0.00 0.00 0.00 76 1009.9
20240616125356 72 200 2.0 7.0 0.00 0.00 0.00 76 1009.9
20240616124749 71 204 2.0 7.0 0.00 0.00 0.00 77 1009.8
20240616124224 71 191 2.0 9.0 0.00 0.00 0.00 78 1009.8
20240616123950 70 194 2.0 9.0 0.00 0.00 0.00 78 1009.8
20240616123823 70 194 2.0 9.0 0.00 0.00 0.00 78 1009.8
20240616123206 70 220 2.0 9.0 0.00 0.00 0.00 79 1009.8
20240616122926 69 218 2.0 8.0 0.00 0.00 0.00 79 1009.7
20240616122702 69 218 2.0 8.0 0.00 0.00 0.00 79 1009.7
20240616122436 69 227 2.0 6.0 0.00 0.00 0.00 80 1009.7
20240616122414 69 225 2.0 6.0 0.00 0.00 0.00 80 1009.5
20240616122216 69 227 2.0 6.0 0.00 0.00 0.00 80 1009.7
20240616121143 68 198 2.0 6.0 0.00 0.00 0.00 80 1009.4
20240616120840 68 0 2.0 8.0 0.00 0.00 0.00 79 1009.4
20240616120730 68 0 2.0 6.0 0.00 0.00 0.00 80 1009.4
20240616120228 68 0 2.0 8.0 0.00 0.00 0.00 79 1009.4
20240616115848 68 0 2.0 8.0 0.00 0.00 0.00 79 1009.4
20240616115728 68 0 2.0 8.0 0.00 0.00 0.00 79 1009.4
20240616115553 68 0 2.0 5.0 0.00 0.00 0.00 78 1009.3
20240616115209 68 0 2.0 5.0 0.00 0.00 0.00 78 1009.3
20240616114535 68 0 2.0 8.0 0.00 0.00 0.00 78 1009.2
20240616114016 68 0 3.0 8.0 0.00 0.00 0.00 77 1009.3
20240616113728 68 0 2.0 8.0 0.00 0.00 0.00 76 1009.2
20240616113605 68 0 2.0 8.0 0.00 0.00 0.00 76 1009.2
20240616112932 68 0 2.0 8.0 0.00 0.00 0.00 76 1009.2
20240616112428 68 0 2.0 8.0 0.00 0.00 0.00 75 1009.1
20240616111928 68 0 1.0 8.0 0.00 0.00 0.00 74 1009.2
20240616111400 68 0 1.0 6.0 0.00 0.00 0.00 71 1009.1
20240616110839 68 0 1.0 4.0 0.00 0.00 0.00 68 1009.0
20240616110549 68 0 1.0 4.0 0.00 0.00 0.00 65 1009.1
20240616110319 68 0 1.0 4.0 0.00 0.00 0.00 65 1009.1
20240616105816 68 0 1.0 4.0 0.00 0.00 0.00 61 1009.3
20240616105800 68 0 2.0 4.0 0.00 0.00 0.00 63 1009.3
20240616105301 68 0 1.0 4.0 0.00 0.00 0.00 61 1009.3
20240616104757 69 0 0.0 4.0 0.00 0.00 0.00 59 1009.1
20240616104234 69 0 1.0 3.0 0.00 0.00 0.00 58 1008.9
20240616103737 69 0 1.0 4.0 0.00 0.00 0.00 58 1009.0